Wind_Speed
33 32 30 28 27 27 26 25 24 23 21 20 19 18 17 16 15 15 14 13 12 12 12 11 10 10 9 10 10 10 9 9 9 10 10 10 10 10 10 10 10 10 10
36 34 33 32 30 29 28 27 26 25 24 22 21 20 19 18 17 16 15 15 14 13 13 13 12 12 11 11 11 11 11 11 11 11 11 11 11 11 11 11 11 11 11
39 37 35 34 33 32 31 30 29 28 26 24 23 23 22 20 19 19 18 17 16 15 14 14 13 13 13 12 12 12 12 12 12 12 12 11 11 11 12 11 11 12 11
41 40 39 37 35 34 32 31 31 30 29 27 26 25 24 23 21 21 20 19 18 17 17 16 15 14 14 14 13 13 13 13 13 13 12 12 12 12 12 12 12 12 12
43 41 40 40 38 37 35 34 33 32 31 30 29 27 26 25 23 22 22 21 20 19 19 18 17 17 15 15 15 14 14 14 14 13 13 13 13 13 13 13 13 13 13
44 43 42 41 41 40 38 37 36 35 33 32 31 30 29 27 26 24 23 23 22 21 20 20 19 18 17 16 16 16 15 15 15 15 14 14 14 14 15 15 14 15 15
47 46 44 42 42 41 41 40 39 37 35 34 33 33 31 30 29 27 26 25 24 23 22 22 21 20 20 18 18 17 17 16 16 16 16 16 16 16 16 16 16 16 16
49 48 48 45 44 43 42 41 41 40 38 37 35 35 34 33 31 30 28 27 26 25 24 23 22 22 22 20 19 19 18 18 18 18 18 18 17 17 17 17 17 17 17
51 49 49 48 47 45 44 43 42 41 40 38 37 37 36 35 34 32 31 29 28 27 26 24 24 23 22 22 21 20 20 20 19 19 19 19 19 19 19 19 19 19 19
52 51 50 50 49 48 47 45 44 42 41 40 39 38 38 37 36 35 34 32 30 29 28 27 26 24 23 23 23 22 21 21 21 21 21 21 22 21 21 22 22 22 22
53 53 52 51 50 50 49 48 46 44 43 42 41 40 39 39 38 37 36 34 33 32 30 29 29 28 26 25 25 24 24 24 24 23 23 23 24 23 23 23 24 24 24
53 54 54 53 52 50 49 49 49 47 45 44 43 41 40 40 38 38 38 37 35 34 33 32 31 30 30 28 27 26 26 25 25 25 25 25 25 25 25 25 25 26 26
53 54 54 53 54 52 50 49 50 49 47 46 44 43 42 41 40 39 39 39 38 36 34 33 33 32 32 31 29 29 28 27 27 26 26 26 26 27 27 27 27 27 28
53 52 54 54 54 54 51 51 51 51 49 48 46 45 44 43 41 40 40 40 39 38 37 36 34 34 34 33 31 30 30 30 29 29 28 28 28 29 29 28 29 29 30
55 54 53 54 54 55 53 52 51 52 51 50 48 47 45 45 43 42 41 41 40 40 39 38 37 36 35 35 34 33 33 31 31 31 31 31 30 31 31 30 31 32 32
55 55 54 54 55 57 55 53 53 53 52 52 51 50 47 47 45 44 43 43 43 41 40 39 39 38 37 37 36 36 35 35 34 34 34 33 33 33 33 33 33 33 34
54 55 55 54 56 57 56 54 54 55 54 53 52 52 50 49 48 47 45 44 44 43 42 40 40 39 38 38 38 37 37 37 36 36 36 35 35 35 35 35 35 35 36
53 54 54 54 55 57 57 56 56 56 55 54 54 53 53 51 50 49 48 47 46 45 44 42 41 41 40 40 40 39 39 39 39 38 38 38 38 38 38 37 37 38 38
54 54 54 53 54 56 57 56 55 56 56 54 53 53 54 53 51 50 49 49 49 48 46 45 43 42 42 41 41 41 41 41 40 40 40 41 41 41 40 40 40 40 40
56 55 54 54 54 55 56 58 58 57 57 55 55 54 54 54 53 51 51 50 49 49 48 47 45 44 43 43 42 42 42 42 42 42 42 43 43 42 42 42 42 42 42
56 56 55 55 55 56 56 56 57 57 58 57 56 56 55 55 53 52 52 51 50 50 50 49 48 45 45 44 44 44 43 43 43 43 43 43 43 43 43 43 43 43 44
55 56 57 56 56 55 55 55 57 56 56 57 57 56 56 56 55 54 53 53 53 52 51 51 50 47 46 46 45 44 44 44 44 43 43 43 43 43 43 43 44 44 45
54 55 57 58 58 58 57 56 55 55 55 55 57 57 56 56 56 56 55 54 54 53 52 52 52 49 47 47 47 46 46 46 45 45 45 44 45 45 45 45 45 45 45
55 56 56 58 59 58 57 56 56 55 55 55 55 55 55 55 57 56 55 54 53 53 53 52 52 51 49 48 49 48 47 48 48 47 47 47 47 47 47 47 47 47 47
55 56 57 58 58 58 58 57 57 57 56 55 54 54 55 55 55 55 54 54 54 54 54 53 52 51 51 50 50 50 50 49 50 50 49 49 49 49 49 50 50 49 50
53 55 57 58 58 58 58 57 57 58 57 56 56 56 55 55 54 53 53 54 54 54 55 54 54 54 53 52 52 52 52 52 52 51 51 51 51 51 51 51 51 51 51
Wind_Direction
232 232 233 233 233 233 232 231 232 233 233 232 234 235 237 239 242 245 247 250 251 253 256 260 265 271 277 286 291 294 300 307 311 311 313 317 319 322 326 328 327 329 329
233 233 233 233 233 233 233 232 232 232 233 232 234 237 238 240 243 245 247 250 252 255 257 260 263 269 276 281 285 288 293 298 302 305 307 310 312 315 318 321 322 323 325
234 234 234 234 233 233 233 232 232 232 232 233 235 237 240 241 243 245 247 249 252 255 257 260 263 267 273 277 281 284 289 293 297 300 303 304 308 312 315 316 317 318 319
234 234 234 234 234 233 233 233 232 233 233 234 235 238 240 242 242 244 246 248 251 254 257 261 263 265 269 273 278 281 285 289 292 295 298 299 303 309 311 310 311 314 315
234 234 235 235 235 234 234 235 235 234 234 233 235 237 240 242 243 244 246 249 252 254 255 258 261 264 266 271 276 279 283 286 288 291 294 295 299 304 307 307 308 309 312
233 234 235 235 235 235 235 236 237 236 235 234 235 237 239 241 243 244 246 249 251 253 254 256 260 262 263 267 272 276 279 282 283 285 288 291 296 300 302 303 303 304 305
233 233 234 235 235 235 236 236 237 237 236 236 236 237 238 240 243 244 246 248 250 252 254 257 258 261 262 265 270 274 276 276 277 279 283 287 291 295 298 299 299 300 301
234 234 234 235 234 235 235 236 237 237 237 237 238 238 239 240 242 244 245 247 249 251 253 256 257 260 260 262 268 271 273 273 275 276 278 283 287 290 293 295 296 296 298
234 235 235 235 234 234 235 235 236 236 237 237 238 239 239 240 242 244 245 247 248 250 251 255 257 259 261 261 265 269 270 271 272 274 277 280 283 286 289 291 292 293 294
234 234 235 235 234 234 235 235 235 236 237 237 237 238 239 241 243 244 245 246 247 248 249 252 255 257 260 260 262 265 268 269 271 274 276 278 281 283 286 287 288 289 292
234 234 234 233 233 233 234 235 235 236 237 237 237 239 239 240 242 243 244 245 247 248 249 251 254 255 258 260 261 264 267 269 271 273 275 277 279 281 283 285 285 287 289
233 233 233 233 232 233 234 234 235 235 236 237 237 238 239 239 241 243 244 244 245 247 249 251 254 255 257 259 261 262 266 269 271 272 274 276 279 280 282 283 284 286 288
231 233 233 232 232 232 233 234 235 235 236 236 236 237 238 238 240 242 244 245 245 246 249 251 253 255 257 258 260 262 265 268 270 273 275 276 278 280 281 282 283 285 286
230 232 233 232 232 232 233 234 235 235 235 236 236 236 237 238 239 241 243 244 245 247 249 252 253 255 257 259 261 263 264 267 269 272 274 275 277 278 280 281 282 284 284
232 232 233 233 233 232 233 233 234 235 235 235 236 236 237 238 239 242 243 244 245 247 249 252 253 254 256 259 261 263 263 265 269 271 272 273 275 277 279 280 281 282 283
233 234 234 234 233 232 231 233 234 235 235 236 236 236 237 238 239 241 243 245 245 246 249 251 252 253 255 258 261 263 263 265 267 269 271 273 274 276 278 279 280 281 282
232 233 234 235 234 232 232 233 234 234 235 236 237 237 238 239 240 242 243 244 245 246 249 251 253 254 256 258 259 261 263 265 266 269 271 272 273 275 277 279 279 281 283
232 232 233 234 234 232 232 233 234 234 236 237 237 237 237 239 241 242 243 244 246 247 249 250 253 254 256 258 260 261 262 264 267 269 269 271 273 274 276 277 278 280 281
233 233 234 234 234 232 232 233 233 235 236 237 237 238 238 239 241 242 243 245 246 248 249 250 252 255 256 258 261 263 264 265 266 268 269 270 272 273 275 277 278 279 279
234 233 233 233 233 232 233 234 235 237 236 237 238 238 239 240 241 242 243 245 246 248 250 251 253 255 256 258 261 263 265 265 266 268 270 270 272 273 275 276 277 278 278
235 234 234 234 233 232 233 234 236 236 237 238 239 238 239 240 241 242 244 245 247 248 249 250 252 255 256 258 261 263 264 266 267 269 270 271 272 274 275 276 276 277 278
237 236 235 234 233 233 233 234 235 235 237 238 240 240 240 240 242 243 245 246 247 248 249 250 251 253 256 258 260 262 264 265 267 268 270 272 273 274 274 276 277 278 279
238 237 236 234 233 234 234 235 236 236 237 238 239 240 242 243 243 245 246 247 248 249 250 251 251 253 256 257 259 261 263 265 267 269 270 271 272 274 275 276 277 279 280
238 237 236 234 234 234 235 236 236 237 238 239 240 241 242 244 244 246 246 247 248 249 250 251 253 254 256 258 259 261 263 265 267 268 269 271 272 273 274 275 277 278 279
240 239 237 237 237 237 237 237 237 237 238 238 239 240 242 243 244 246 246 248 250 250 251 253 253 255 257 258 260 262 263 265 266 268 269 270 271 272 273 275 276 277 279
242 239 239 239 239 239 239 238 238 238 239 239 240 241 242 243 244 245 246 248 250 251 252 253 254 255 257 258 260 262 264 266 267 268 269 270 271 272 273 274 275 276 278
Height
5822 5824 5827 5829 5831 5834 5836 5837 5839 5841 5843 5845 5846 5848 5849 5850 5851 5852 5853 5853 5854 5854 5854 5854 5855 5855 5854 5854 5854 5853 5852 5851 5850 5849 5848 5846 5845 5844 5842 5841 5839 5837 5836
5814 5817 5820 5823 5825 5828 5830 5832 5834 5836 5838 5840 5842 5843 5845 5846 5847 5848 5849 5850 5851 5851 5851 5852 5852 5852 5852 5852 5851 5851 5850 5849 5848 5847 5846 5844 5843 5842 5841 5839 5838 5836 5834
5806 5810 5813 5815 5818 5821 5824 5826 5828 5830 5833 5835 5837 5838 5840 5841 5843 5844 5845 5846 5847 5848 5848 5849 5849 5849 5849 5849 5848 5848 5847 5847 5846 5845 5843 5842 5841 5840 5839 5837 5836 5834 5833
5798 5801 5805 5808 5811 5814 5817 5819 5822 5824 5827 5829 5831 5833 5835 5836 5838 5839 5841 5842 5843 5844 5845 5845 5845 5846 5846 5846 5845 5845 5844 5844 5843 5842 5841 5840 5839 5838 5837 5835 5834 5832 5831
5788 5792 5796 5800 5803 5806 5809 5812 5815 5818 5820 5823 5825 5827 5829 5831 5833 5834 5836 5837 5839 5840 5841 5841 5842 5842 5842 5842 5842 5842 5841 5841 5840 5839 5838 5837 5837 5836 5834 5833 5832 5830 5829
5779 5783 5787 5791 5794 5798 5801 5804 5807 5810 5813 5816 5818 5821 5823 5825 5827 5829 5831 5832 5834 5835 5836 5837 5838 5838 5838 5838 5838 5838 5838 5837 5837 5836 5835 5835 5834 5833 5832 5830 5829 5828 5826
5768 5773 5777 5781 5785 5789 5792 5796 5798 5801 5805 5808 5811 5814 5816 5819 5821 5824 5825 5827 5829 5830 5831 5832 5833 5833 5833 5834 5834 5834 5834 5833 5833 5832 5832 5831 5831 5829 5828 5827 5826 5824 5823
5757 5762 5766 5771 5775 5779 5783 5786 5790 5793 5796 5800 5803 5806 5809 5812 5814 5817 5819 5821 5823 5824 5826 5827 5828 5828 5829 5829 5829 5830 5830 5829 5829 5828 5828 5827 5827 5826 5825 5823 5822 5821 5820
5746 5751 5755 5760 5765 5769 5773 5776 5780 5784 5788 5791 5794 5798 5801 5805 5807 5810 5812 5815 5817 5818 5820 5821 5822 5823 5823 5824 5824 5825 5825 5825 5824 5824 5824 5823 5822 5822 5821 5819 5818 5817 5816
5734 5739 5744 5748 5753 5758 5762 5766 5770 5774 5778 5782 5785 5789 5793 5797 5800 5803 5805 5808 5810 5812 5813 5815 5816 5817 5818 5819 5819 5820 5820 5820 5820 5819 5819 5818 5818 5817 5816 5815 5814 5812 5811
5721 5727 5732 5736 5741 5746 5751 5756 5760 5764 5768 5772 5776 5780 5784 5788 5791 5794 5797 5800 5803 5805 5806 5808 5809 5811 5812 5813 5814 5814 5814 5814 5814 5814 5813 5813 5812 5812 5811 5810 5808 5807 5806
5709 5714 5719 5724 5730 5735 5740 5745 5749 5754 5758 5763 5767 5771 5775 5779 5782 5786 5789 5792 5794 5797 5799 5801 5802 5804 5805 5806 5807 5808 5808 5808 5808 5808 5808 5807 5806 5806 5805 5804 5803 5801 5800
5697 5702 5707 5712 5718 5723 5728 5733 5738 5744 5748 5753 5757 5762 5765 5770 5773 5777 5780 5783 5786 5788 5791 5793 5795 5797 5798 5799 5800 5801 5801 5802 5802 5801 5801 5801 5800 5799 5798 5798 5796 5795 5794
5684 5689 5694 5700 5705 5711 5717 5722 5727 5733 5738 5742 5747 5751 5756 5760 5764 5767 5771 5774 5777 5780 5782 5785 5787 5789 5790 5792 5793 5793 5794 5794 5795 5795 5794 5794 5793 5793 5792 5791 5790 5788 5787
5671 5676 5682 5687 5693 5699 5705 5710 5716 5721 5727 5732 5736 5741 5746 5750 5754 5758 5761 5765 5768 5771 5774 5776 5779 5781 5782 5783 5785 5785 5786 5787 5787 5787 5787 5787 5786 5785 5784 5783 5782 5781 5780
5659 5664 5669 5675 5681 5687 5693 5698 5704 5710 5715 5720 5725 5730 5735 5740 5744 5748 5752 5755 5758 5762 5765 5767 5770 5771 5773 5775 5776 5777 5778 5778 5779 5779 5779 5779 5778 5778 5777 5776 5774 5773 5772
5646 5652 5657 5662 5668 5675 5680 5686 5692 5698 5704 5709 5714 5719 5724 5729 5733 5738 5742 5745 5748 5752 5755 5758 5760 5762 5764 5766 5767 5768 5768 5769 5770 5770 5770 5770 5769 5769 5768 5767 5766 5764 5763
5633 5639 5644 5650 5656 5662 5668 5674 5680 5686 5691 5697 5702 5708 5713 5717 5722 5727 5731 5734 5738 5741 5745 5748 5751 5752 5754 5756 5757 5758 5759 5760 5760 5761 5761 5760 5760 5759 5759 5758 5757 5755 5754
5620 5626 5632 5638 5643 5649 5656 5662 5668 5674 5680 5685 5690 5696 5701 5706 5711 5715 5720 5724 5727 5731 5734 5737 5740 5742 5744 5746 5747 5748 5749 5750 5750 5751 5750 5750 5750 5749 5749 5748 5747 5746 5744
5608 5614 5620 5626 5631 5637 5643 5649 5656 5661 5668 5673 5678 5684 5689 5694 5699 5704 5708 5712 5716 5719 5723 5726 5729 5732 5734 5735 5737 5738 5739 5739 5740 5740 5740 5740 5739 5739 5738 5738 5737 5735 5734
5595 5601 5607 5613 5619 5625 5631 5637 5643 5649 5655 5660 5666 5672 5677 5682 5687 5691 5696 5700 5704 5708 5711 5714 5718 5720 5722 5724 5726 5727 5728 5728 5729 5729 5729 5729 5729 5728 5727 5726 5725 5724 5723
5583 5588 5594 5600 5607 5613 5619 5625 5631 5637 5642 5648 5654 5659 5664 5669 5674 5679 5684 5688 5692 5695 5699 5702 5706 5708 5711 5713 5715 5716 5716 5717 5718 5719 5718 5718 5717 5717 5716 5715 5714 5712 5711
5570 5575 5581 5587 5594 5600 5606 5612 5618 5624 5630 5635 5641 5646 5652 5657 5662 5666 5671 5675 5679 5682 5687 5690 5693 5696 5699 5701 5703 5704 5705 5705 5706 5707 5706 5706 5706 5705 5704 5703 5702 5701 5699
5557 5563 5568 5574 5581 5587 5593 5599 5605 5611 5617 5622 5628 5634 5639 5644 5649 5653 5658 5662 5666 5670 5674 5677 5682 5684 5686 5688 5690 5691 5692 5693 5694 5694 5694 5694 5694 5693 5692 5691 5690 5689 5687
5544 5549 5555 5561 5567 5574 5580 5586 5592 5597 5603 5609 5615 5621 5626 5631 5636 5640 5645 5649 5654 5657 5659 5663 5667 5670 5672 5675 5677 5678 5679 5680 5681 5681 5681 5681 5681 5680 5679 5678 5677 5675 5674
5531 5536 5542 5547 5553 5560 5566 5572 5578 5584 5591 5597 5602 5608 5613 5618 5623 5626 5631 5635 5640 5644 5647 5650 5653 5656 5659 5661 5663 5664 5665 5666 5667 5668 5668 5667 5667 5666 5666 5665 5663 5662 5660